This is the latest recevied weather packets stored in our database for station/object N8WJW. If no packets are shown the sender has not sent any weather packets the latest 10 day(s).
| Time | Temp. | Humidity | Pressure | Rain* | Wind** | Luminosity | Snow |
|---|---|---|---|---|---|---|---|
| 1778004755 | 16.11° C | 79% | 1009.3 hPa | 0 mm | - | 76 W/m² | - |
| 1778004452 | 16.67° C | 79% | 1009.2 hPa | 0 mm | - | 64 W/m² | - |
| 1778004148 | 16.67° C | 78% | 1009.3 hPa | 0 mm | - | 139 W/m² | - |
| 1778003845 | 16.67° C | 77% | 1009.2 hPa | 0 mm | - | 76 W/m² | - |
| 1778003541 | 16.67° C | 77% | 1008.9 hPa | 0 mm | - | 138 W/m² | - |
| 1778003238 | 16.67° C | 78% | 1009 hPa | 0 mm | - | 255 W/m² | - |
| 1778002935 | 16.11° C | 79% | 1009.1 hPa | 0 mm | - | 139 W/m² | - |
| 1778002631 | 16.11° C | 78% | 1009.2 hPa | 0 mm | - | 78 W/m² | - |
| 1778002328 | 16.67° C | 78% | 1008.9 hPa | 0 mm | - | 85 W/m² | - |
| 1778002025 | 16.67° C | 77% | 1008.8 hPa | 0 mm | - | 141 W/m² | - |
| 1778001722 | 16.67° C | 77% | 1008.9 hPa | 0 mm | - | 102 W/m² | - |
| 1778001421 | 16.67° C | 77% | 1008.8 hPa | 0 mm | - | 141 W/m² | - |
| 1778001119 | 16.11° C | 77% | 1008.8 hPa | 0 mm | - | 73 W/m² | - |
| 1778000816 | 16.11° C | 77% | 1008.8 hPa | 0 mm | - | 103 W/m² | - |
| 1778000512 | 16.11° C | 76% | 1008.9 hPa | 0 mm | - | 86 W/m² | - |
| 1778000212 | 16.11° C | 76% | 1008.9 hPa | 0 mm | - | 71 W/m² | - |
| 1777999909 | 16.67° C | 75% | 1008.7 hPa | 0 mm | - | 61 W/m² | - |
| 1777999604 | 17.22° C | 72% | 1008.7 hPa | 0 mm | - | 45 W/m² | - |
| 1777999302 | 17.78° C | 69% | 1008.5 hPa | 0 mm | - | 78 W/m² | - |
| 1777999000 | 18.89° C | 68% | 1008.6 hPa | 0 mm | - | 54 W/m² | - |
| 1777998698 | 18.89° C | 64% | 1008.2 hPa | 0 mm | - | 63 W/m² | - |
| 1777998395 | 20° C | 63% | 1008.2 hPa | 0 mm | - | 76 W/m² | - |
| 1777998092 | 20° C | 65% | 1008 hPa | 0 mm | - | 301 W/m² | - |
| 1777997789 | 20° C | 62% | 1008.2 hPa | 0 mm | - | 221 W/m² | - |
| 1777997487 | 20.56° C | 62% | 1008 hPa | 0 mm | - | 655 W/m² | - |
* Rain latest hour (hover to see other rain measurements)
** Current wind speed in m/s (hover to see current wind gust speed)